Time,TemperatureF,DewpointF,PressureIn,WindDirection,WindDirectionDegrees,WindSpeedMPH,WindSpeedGustMPH,Humidity,HourlyPrecipIn,Conditions,Clouds,dailyrainin,SolarRadiationWatts/m^2,SoftwareType,DateUTC
2013-08-21 00:00:00,68.0,61.0,-100.00,NNE,22,0.0,-999.0,76,-99.99,,,-99.99,0.000000,,2013-08-21 04:00:00,
2013-08-21 00:44:00,68.0,61.0,-100.00,NNE,22,0.0,-999.0,76,-99.99,,,-99.99,0.000000,,2013-08-21 04:44:00,
2013-08-21 00:54:00,68.0,61.0,-100.00,NNE,22,0.0,-999.0,76,-99.99,,,-99.99,0.000000,,2013-08-21 04:54:00,
2013-08-21 01:00:00,68.0,62.0,-100.00,NNE,22,0.0,-999.0,80,-99.99,,,-99.99,0.000000,,2013-08-21 05:00:00,
2013-08-21 01:43:00,68.0,62.0,-100.00,NNE,22,0.0,-999.0,80,-99.99,,,-99.99,0.000000,,2013-08-21 05:43:00,
2013-08-21 01:52:00,68.0,62.0,-100.00,NNE,22,0.0,-999.0,80,-99.99,,,-99.99,0.000000,,2013-08-21 05:52:00,
2013-08-21 02:00:00,67.0,62.0,-100.00,NNE,22,0.0,-999.0,84,-99.99,,,-99.99,0.000000,,2013-08-21 06:00:00,
2013-08-21 02:42:00,67.0,62.0,-100.00,NNE,22,0.0,-999.0,84,-99.99,,,-99.99,0.000000,,2013-08-21 06:42:00,
2013-08-21 02:52:00,67.0,62.0,-100.00,NNE,22,0.0,-999.0,84,-99.99,,,-99.99,0.000000,,2013-08-21 06:52:00,
2013-08-21 03:00:00,66.0,62.0,-100.00,SSW,202,0.0,-999.0,86,-99.99,,,-99.99,0.000000,,2013-08-21 07:00:00,
2013-08-21 03:42:00,66.0,62.0,-100.00,SSW,202,0.0,-999.0,86,-99.99,,,-99.99,0.000000,,2013-08-21 07:42:00,
2013-08-21 03:53:00,66.0,62.0,-100.00,SSW,202,0.0,-999.0,86,-99.99,,,-99.99,0.000000,,2013-08-21 07:53:00,
2013-08-21 04:00:00,66.0,62.0,-100.00,SSW,202,0.0,-999.0,85,-99.99,,,-99.99,0.000000,,2013-08-21 08:00:00,
2013-08-21 04:43:00,66.0,62.0,-100.00,SSW,202,0.0,-999.0,85,-99.99,,,-99.99,0.000000,,2013-08-21 08:43:00,
2013-08-21 04:53:00,66.0,62.0,-100.00,SSW,202,0.0,-999.0,85,-99.99,,,-99.99,0.000000,,2013-08-21 08:53:00,
2013-08-21 05:00:00,66.0,61.0,-100.00,SW,225,0.0,-999.0,85,-99.99,,,-99.99,0.000000,,2013-08-21 09:00:00,
2013-08-21 05:43:00,66.0,61.0,-100.00,SW,225,0.0,-999.0,85,-99.99,,,-99.99,0.000000,,2013-08-21 09:43:00,
2013-08-21 05:54:00,66.0,61.0,-100.00,SW,225,0.0,-999.0,85,-99.99,,,-99.99,0.000000,,2013-08-21 09:54:00,
2013-08-21 06:00:00,66.0,61.0,-100.00,WSW,247,0.0,-999.0,86,-99.99,,,-99.99,0.000000,,2013-08-21 10:00:00,
2013-08-21 06:43:00,66.0,61.0,-100.00,WSW,247,0.0,-999.0,86,-99.99,,,-99.99,0.000000,,2013-08-21 10:43:00,
2013-08-21 06:53:00,66.0,61.0,-100.00,WSW,247,0.0,-999.0,86,-99.99,,,-99.99,0.000000,,2013-08-21 10:53:00,
2013-08-21 07:00:00,65.0,61.0,-100.00,WSW,247,0.0,-999.0,86,-99.99,,,-99.99,0.000000,,2013-08-21 11:00:00,
2013-08-21 07:42:00,65.0,61.0,-100.00,WSW,247,0.0,-999.0,86,-99.99,,,-99.99,0.000000,,2013-08-21 11:42:00,
2013-08-21 07:53:00,65.0,61.0,-100.00,WSW,247,0.0,-999.0,86,-99.99,,,-99.99,0.000000,,2013-08-21 11:53:00,
2013-08-21 08:00:00,65.0,61.0,-100.00,SW,225,0.0,-999.0,87,-99.99,,,-99.99,41.759998,,2013-08-21 12:00:00,
2013-08-21 08:42:00,65.0,61.0,-100.00,SW,225,0.0,-999.0,87,-99.99,,,-99.99,41.759998,,2013-08-21 12:42:00,
2013-08-21 08:52:00,65.0,61.0,-100.00,SW,225,0.0,-999.0,87,-99.99,,,-99.99,41.759998,,2013-08-21 12:52:00,
2013-08-21 09:00:00,69.0,63.0,-100.00,SW,225,1.0,-999.0,82,-99.99,,,-99.99,171.679993,,2013-08-21 13:00:00,
2013-08-21 09:42:00,69.0,63.0,-100.00,SW,225,1.0,-999.0,82,-99.99,,,-99.99,171.679993,,2013-08-21 13:42:00,
2013-08-21 09:52:00,69.0,63.0,-100.00,SW,225,1.0,-999.0,82,-99.99,,,-99.99,171.679993,,2013-08-21 13:52:00,
2013-08-21 10:00:00,73.0,65.0,-100.00,SSW,202,4.0,-999.0,74,-99.99,,,-99.99,339.880005,,2013-08-21 14:00:00,
2013-08-21 10:42:00,73.0,65.0,-100.00,SSW,202,4.0,-999.0,74,-99.99,,,-99.99,339.880005,,2013-08-21 14:42:00,
2013-08-21 10:52:00,73.0,65.0,-100.00,SSW,202,4.0,-999.0,74,-99.99,,,-99.99,339.880005,,2013-08-21 14:52:00,
2013-08-21 11:00:00,78.0,65.0,-100.00,SW,225,6.0,-999.0,64,-99.99,,,-99.99,484.880005,,2013-08-21 15:00:00,
2013-08-21 11:43:00,78.0,65.0,-100.00,SW,225,6.0,-999.0,64,-99.99,,,-99.99,484.880005,,2013-08-21 15:43:00,
2013-08-21 11:55:00,78.0,65.0,-100.00,SW,225,6.0,-999.0,64,-99.99,,,-99.99,484.880005,,2013-08-21 15:55:00,
2013-08-21 12:00:00,80.0,65.0,-100.00,SW,225,7.0,-999.0,59,-99.99,,,-99.99,599.719971,,2013-08-21 16:00:00,
2013-08-21 12:43:00,80.0,65.0,-100.00,SW,225,7.0,-999.0,59,-99.99,,,-99.99,599.719971,,2013-08-21 16:43:00,
2013-08-21 12:53:00,80.0,65.0,-100.00,SW,225,7.0,-999.0,59,-99.99,,,-99.99,599.719971,,2013-08-21 16:53:00,
2013-08-21 13:00:00,82.0,63.0,-100.00,SW,225,8.0,-999.0,51,-99.99,,,-99.99,675.119995,,2013-08-21 17:00:00,
2013-08-21 13:43:00,82.0,63.0,-100.00,SW,225,8.0,-999.0,51,-99.99,,,-99.99,675.119995,,2013-08-21 17:43:00,
2013-08-21 13:53:00,82.0,63.0,-100.00,SW,225,8.0,-999.0,51,-99.99,,,-99.99,675.119995,,2013-08-21 17:53:00,
2013-08-21 14:00:00,84.0,61.0,-100.00,SW,225,8.0,-999.0,46,-99.99,,,-99.99,733.119995,,2013-08-21 18:00:00,
2013-08-21 14:42:00,84.0,61.0,-100.00,SW,225,8.0,-999.0,46,-99.99,,,-99.99,733.119995,,2013-08-21 18:42:00,
2013-08-21 14:52:00,84.0,61.0,-100.00,SW,225,8.0,-999.0,46,-99.99,,,-99.99,733.119995,,2013-08-21 18:52:00,
2013-08-21 15:00:00,84.0,61.0,-100.00,WSW,247,8.0,-999.0,45,-99.99,,,-99.99,714.559998,,2013-08-21 19:00:00,
2013-08-21 15:42:00,84.0,61.0,-100.00,WSW,247,8.0,-999.0,45,-99.99,,,-99.99,714.559998,,2013-08-21 19:42:00,
2013-08-21 15:53:00,84.0,61.0,-100.00,WSW,247,8.0,-999.0,45,-99.99,,,-99.99,714.559998,,2013-08-21 19:53:00,
2013-08-21 16:00:00,85.0,61.0,-100.00,SSW,202,8.0,-999.0,44,-99.99,,,-99.99,663.520020,,2013-08-21 20:00:00,
2013-08-21 16:43:00,85.0,61.0,-100.00,SSW,202,8.0,-999.0,44,-99.99,,,-99.99,663.520020,,2013-08-21 20:43:00,
2013-08-21 16:52:00,85.0,61.0,-100.00,SSW,202,8.0,-999.0,44,-99.99,,,-99.99,663.520020,,2013-08-21 20:52:00,
2013-08-21 17:00:00,85.0,61.0,-100.00,SW,225,8.0,-999.0,45,-99.99,,,-99.99,537.080017,,2013-08-21 21:00:00,
2013-08-21 17:45:00,85.0,61.0,-100.00,SW,225,8.0,-999.0,45,-99.99,,,-99.99,537.080017,,2013-08-21 21:45:00,
2013-08-21 17:55:00,85.0,61.0,-100.00,SW,225,8.0,-999.0,45,-99.99,,,-99.99,537.080017,,2013-08-21 21:55:00,
2013-08-21 18:00:00,84.0,62.0,-100.00,SW,225,8.0,-999.0,46,-99.99,,,-99.99,416.440002,,2013-08-21 22:00:00,
2013-08-21 18:44:00,84.0,62.0,-100.00,SW,225,8.0,-999.0,46,-99.99,,,-99.99,416.440002,,2013-08-21 22:44:00,
2013-08-21 18:53:00,84.0,62.0,-100.00,SW,225,8.0,-999.0,46,-99.99,,,-99.99,416.440002,,2013-08-21 22:53:00,
2013-08-21 19:00:00,83.0,61.0,-100.00,SW,225,7.0,-999.0,48,-99.99,,,-99.99,259.839996,,2013-08-21 23:00:00,
2013-08-21 19:43:00,83.0,61.0,-100.00,SW,225,7.0,-999.0,48,-99.99,,,-99.99,259.839996,,2013-08-21 23:43:00,
2013-08-21 19:53:00,83.0,61.0,-100.00,SW,225,7.0,-999.0,48,-99.99,,,-99.99,259.839996,,2013-08-21 23:53:00,
2013-08-21 20:00:00,81.0,62.0,-100.00,SSW,202,4.0,-999.0,52,-99.99,,,-99.99,99.760002,,2013-08-22 00:00:00,
2013-08-21 20:42:00,81.0,62.0,-100.00,SSW,202,4.0,-999.0,52,-99.99,,,-99.99,99.760002,,2013-08-22 00:42:00,
2013-08-21 20:52:00,81.0,62.0,-100.00,SSW,202,4.0,-999.0,52,-99.99,,,-99.99,99.760002,,2013-08-22 00:52:00,
2013-08-21 21:00:00,77.0,62.0,-100.00,SSW,202,1.0,-999.0,59,-99.99,,,-99.99,5.800000,,2013-08-22 01:00:00,
2013-08-21 21:42:00,77.0,62.0,-100.00,SSW,202,1.0,-999.0,59,-99.99,,,-99.99,5.800000,,2013-08-22 01:42:00,
2013-08-21 21:52:00,77.0,62.0,-100.00,SSW,202,1.0,-999.0,59,-99.99,,,-99.99,5.800000,,2013-08-22 01:52:00,
2013-08-21 22:00:00,75.0,62.0,-100.00,SW,225,1.0,-999.0,65,-99.99,,,-99.99,0.000000,,2013-08-22 02:00:00,
2013-08-21 22:52:00,75.0,62.0,-100.00,SW,225,1.0,-999.0,65,-99.99,,,-99.99,0.000000,,2013-08-22 02:52:00,
2013-08-21 23:00:00,75.0,63.0,-100.00,SW,225,1.0,-999.0,67,-99.99,,,-99.99,0.000000,,2013-08-22 03:00:00,
2013-08-21 23:45:00,75.0,63.0,-100.00,SW,225,1.0,-999.0,67,-99.99,,,-99.99,0.000000,,2013-08-22 03:45:00,
2013-08-21 23:54:00,75.0,63.0,-100.00,SW,225,1.0,-999.0,67,-99.99,,,-99.99,0.000000,,2013-08-22 03:54:00,